Location: Laura�t
(43.9341°N, 0.2497°E)
Time: 23:49:21
(UTC+00:00)

CZ-4 R/B - Pass Details

Date: 03 March 2021
Orbit: 532 x 597 km, 97.7° (Epoch: 17 April)

Event Time Altitude Azimuth Distance (km) Brightness Sun altitude
Rises 19:37:43 0° 206° (SSW) 2,666 5.0 -20.1°
Reaches altitude 10° 19:40:27 10° 228° (SW) 1,786 4.4 -20.6°
Maximum altitude 19:42:56 16° 268° (W) 1,433 4.4 -21.0°
Drops below altitude 10° 19:45:27 10° 308° (NW) 1,809 4.8 -21.4°
Sets 19:48:16 0° 330° (NNW) 2,719 5.5 -21.9°
